QPF
0.00 0.00 0.00 0.00 0.00 0.00 0.00 0.00 0.00 0.00 0.00 0.00 0.00 0.00 0.00 0.01 0.01 0.01 0.01 0.01 0.00 0.01 0.01 0.01 0.01 0.01 0.01 0.01 0.01 0.01 0.02 0.04 0.02 0.02 0.02 0.03 0.04 0.05 0.07 0.08 0.07 0.06 0.06 0.05
0.00 0.00 0.00 0.00 0.00 0.00 0.00 0.00 0.00 0.00 0.00 0.00 0.00 0.00 0.00 0.01 0.01 0.00 0.00 0.00 0.00 0.01 0.01 0.01 0.01 0.01 0.01 0.02 0.01 0.01 0.03 0.05 0.03 0.02 0.03 0.03 0.04 0.05 0.05 0.05 0.05 0.06 0.07 0.06
0.00 0.00 0.00 0.00 0.00 0.00 0.00 0.00 0.00 0.00 0.00 0.00 0.00 0.00 0.00 0.01 0.01 0.01 0.00 0.00 0.01 0.01 0.00 0.01 0.01 0.00 0.00 0.01 0.02 0.02 0.05 0.06 0.04 0.03 0.03 0.03 0.02 0.02 0.03 0.05 0.06 0.05 0.05 0.06
0.00 0.00 0.00 0.00 0.00 0.00 0.00 0.00 0.00 0.00 0.00 0.00 0.00 0.00 0.01 0.01 0.01 0.01 0.01 0.01 0.01 0.00 0.01 0.01 0.01 0.01 0.01 0.02 0.03 0.03 0.07 0.05 0.03 0.03 0.03 0.02 0.02 0.02 0.03 0.04 0.06 0.07 0.07 0.07
0.00 0.00 0.00 0.00 0.00 0.00 0.00 0.00 0.00 0.00 0.00 0.00 0.00 0.00 0.01 0.01 0.02 0.02 0.01 0.01 0.01 0.01 0.01 0.01 0.01 0.01 0.01 0.01 0.02 0.03 0.03 0.03 0.05 0.06 0.05 0.04 0.02 0.03 0.03 0.03 0.03 0.04 0.06 0.08
0.00 0.00 0.00 0.00 0.00 0.00 0.00 0.00 0.00 0.00 0.00 0.00 0.00 0.01 0.01 0.01 0.01 0.01 0.01 0.01 0.01 0.01 0.01 0.01 0.01 0.01 0.01 0.01 0.01 0.02 0.03 0.04 0.07 0.06 0.03 0.02 0.02 0.03 0.02 0.01 0.01 0.02 0.03 0.04
0.00 0.00 0.00 0.00 0.00 0.00 0.00 0.00 0.00 0.00 0.00 0.00 0.01 0.01 0.02 0.01 0.01 0.01 0.00 0.00 0.01 0.00 0.01 0.01 0.01 0.01 0.01 0.01 0.02 0.05 0.06 0.06 0.07 0.05 0.02 0.01 0.02 0.02 0.01 0.01 0.01 0.02 0.02 0.02
0.00 0.00 0.00 0.00 0.00 0.00 0.00 0.00 0.00 0.00 0.01 0.01 0.02 0.02 0.01 0.01 0.01 0.00 0.00 0.00 0.01 0.01 0.01 0.01 0.01 0.01 0.01 0.02 0.03 0.04 0.05 0.12 0.08 0.02 0.01 0.01 0.01 0.01 0.02 0.01 0.01 0.02 0.03 0.03
0.00 0.00 0.00 0.00 0.00 0.00 0.00 0.00 0.00 0.00 0.01 0.01 0.01 0.02 0.01 0.01 0.01 0.01 0.01 0.01 0.01 0.02 0.02 0.02 0.02 0.02 0.01 0.02 0.02 0.03 0.04 0.08 0.03 0.02 0.02 0.02 0.02 0.02 0.02 0.02 0.02 0.02 0.02 0.03
0.00 0.00 0.00 0.00 0.00 0.00 0.00 0.00 0.00 0.00 0.01 0.01 0.01 0.01 0.01 0.02 0.01 0.01 0.01 0.01 0.02 0.02 0.02 0.02 0.02 0.01 0.01 0.01 0.01 0.01 0.02 0.03 0.03 0.03 0.03 0.02 0.03 0.03 0.03 0.02 0.02 0.02 0.03 0.03
0.00 0.00 0.00 0.00 0.00 0.00 0.00 0.00 0.00 0.00 0.01 0.01 0.01 0.01 0.02 0.02 0.01 0.01 0.01 0.01 0.02 0.02 0.02 0.02 0.01 0.01 0.01 0.01 0.01 0.00 0.01 0.01 0.02 0.02 0.02 0.02 0.03 0.03 0.04 0.04 0.04 0.04 0.04 0.04
0.00 0.00 0.00 0.00 0.00 0.00 0.00 0.00 0.01 0.01 0.01 0.01 0.02 0.02 0.01 0.02 0.02 0.01 0.01 0.01 0.01 0.02 0.01 0.01 0.01 0.02 0.02 0.02 0.02 0.01 0.01 0.01 0.01 0.01 0.01 0.02 0.02 0.03 0.04 0.05 0.06 0.08 0.09 0.08
0.00 0.00 0.00 0.00 0.00 0.00 0.00 0.01 0.01 0.01 0.01 0.01 0.02 0.02 0.02 0.02 0.03 0.02 0.02 0.02 0.02 0.02 0.01 0.01 0.01 0.02 0.02 0.02 0.01 0.01 0.01 0.01 0.01 0.01 0.01 0.01 0.02 0.02 0.02 0.03 0.05 0.08 0.11 0.12
0.00 0.00 0.01 0.00 0.00 0.00 0.00 0.01 0.01 0.01 0.01 0.02 0.02 0.02 0.02 0.02 0.02 0.02 0.02 0.01 0.01 0.01 0.01 0.01 0.01 0.02 0.03 0.02 0.01 0.01 0.01 0.01 0.01 0.01 0.01 0.01 0.02 0.02 0.03 0.02 0.02 0.05 0.09 0.12
0.00 0.00 0.00 0.00 0.00 0.00 0.00 0.00 0.00 0.01 0.01 0.03 0.04 0.03 0.02 0.02 0.03 0.03 0.02 0.02 0.01 0.01 0.01 0.02 0.02 0.03 0.03 0.03 0.03 0.02 0.02 0.02 0.02 0.02 0.02 0.03 0.02 0.03 0.03 0.02 0.03 0.04 0.07 0.10
0.00 0.00 0.00 0.01 0.00 0.00 0.00 0.00 0.01 0.01 0.01 0.03 0.05 0.06 0.05 0.03 0.03 0.04 0.04 0.03 0.03 0.02 0.02 0.03 0.04 0.04 0.06 0.08 0.07 0.05 0.03 0.02 0.03 0.03 0.02 0.03 0.04 0.04 0.04 0.04 0.05 0.07 0.09 0.10
0.00 0.00 0.00 0.00 0.00 0.00 0.00 0.00 0.00 0.00 0.01 0.02 0.03 0.04 0.06 0.05 0.04 0.04 0.04 0.04 0.03 0.03 0.03 0.03 0.05 0.07 0.10 0.11 0.07 0.06 0.04 0.04 0.05 0.05 0.05 0.05 0.07 0.08 0.07 0.07 0.10 0.10 0.09 0.09
0.01 0.01 0.01 0.01 0.01 0.00 0.00 0.00 0.00 0.00 0.00 0.01 0.01 0.02 0.03 0.04 0.04 0.04 0.04 0.03 0.03 0.04 0.04 0.04 0.04 0.05 0.07 0.10 0.06 0.05 0.04 0.03 0.02 0.03 0.04 0.05 0.07 0.10 0.13 0.11 0.10 0.08 0.06 0.06
0.02 0.02 0.01 0.01 0.01 0.01 0.01 0.01 0.01 0.01 0.01 0.01 0.01 0.01 0.02 0.02 0.02 0.03 0.03 0.03 0.03 0.03 0.02 0.03 0.04 0.04 0.05 0.04 0.03 0.02 0.03 0.02 0.02 0.03 0.03 0.04 0.04 0.05 0.07 0.07 0.05 0.04 0.03 0.04
0.03 0.03 0.03 0.03 0.02 0.02 0.01 0.01 0.01 0.01 0.02 0.01 0.01 0.01 0.01 0.01 0.02 0.03 0.03 0.03 0.03 0.02 0.02 0.02 0.03 0.03 0.03 0.02 0.01 0.01 0.02 0.03 0.04 0.05 0.04 0.03 0.03 0.03 0.03 0.02 0.02 0.02 0.02 0.02
0.06 0.05 0.05 0.04 0.04 0.03 0.02 0.02 0.02 0.02 0.02 0.01 0.01 0.01 0.01 0.01 0.01 0.02 0.04 0.05 0.05 0.03 0.03 0.03 0.02 0.01 0.01 0.01 0.01 0.01 0.01 0.01 0.02 0.03 0.03 0.02 0.01 0.02 0.02 0.02 0.02 0.01 0.01 0.01
0.05 0.04 0.04 0.04 0.04 0.03 0.03 0.03 0.02 0.02 0.01 0.01 0.01 0.01 0.01 0.01 0.01 0.02 0.05 0.07 0.07 0.05 0.03 0.02 0.01 0.01 0.00 0.01 0.01 0.01 0.01 0.01 0.01 0.01 0.01 0.01 0.01 0.01 0.01 0.01 0.01 0.01 0.01 0.01
0.05 0.05 0.05 0.06 0.05 0.04 0.03 0.03 0.02 0.02 0.01 0.01 0.01 0.01 0.01 0.02 0.02 0.02 0.04 0.04 0.04 0.03 0.02 0.01 0.01 0.01 0.01 0.01 0.01 0.00 0.01 0.01 0.01 0.01 0.01 0.01 0.01 0.01 0.01 0.01 0.01 0.01 0.01 0.01
0.07 0.06 0.07 0.06 0.04 0.03 0.03 0.03 0.03 0.02 0.01 0.01 0.01 0.01 0.01 0.01 0.02 0.02 0.03 0.02 0.02 0.02 0.02 0.01 0.01 0.01 0.01 0.01 0.01 0.01 0.01 0.01 0.01 0.01 0.01 0.01 0.01 0.01 0.01 0.01 0.01 0.01 0.01 0.01
0.07 0.06 0.06 0.05 0.04 0.02 0.01 0.01 0.02 0.02 0.01 0.02 0.02 0.01 0.01 0.02 0.03 0.05 0.05 0.03 0.02 0.02 0.01 0.02 0.02 0.02 0.02 0.02 0.02 0.02 0.02 0.02 0.02 0.01 0.01 0.01 0.01 0.01 0.01 0.01 0.01 0.01 0.01 0.01
0.06 0.05 0.05 0.05 0.04 0.02 0.01 0.01 0.01 0.01 0.01 0.01 0.01 0.01 0.01 0.02 0.03 0.06 0.05 0.03 0.02 0.02 0.02 0.02 0.02 0.02 0.02 0.02 0.03 0.02 0.02 0.03 0.02 0.02 0.02 0.02 0.02 0.02 0.02 0.02 0.02 0.02 0.03 0.03
0.04 0.04 0.04 0.04 0.05 0.05 0.04 0.03 0.02 0.01 0.01 0.02 0.02 0.02 0.02 0.03 0.04 0.05 0.05 0.03 0.03 0.03 0.03 0.03 0.02 0.02 0.02 0.03 0.03 0.03 0.03 0.03 0.03 0.03 0.03 0.03 0.03 0.03 0.02 0.02 0.03 0.03 0.04 0.04
MSLP
1019.24 1019.50 1019.82 1020.18 1020.58 1020.99 1021.35 1021.60 1021.71 1021.65 1021.39 1020.94 1020.34 1019.62 1018.84 1018.04 1017.26 1016.53 1015.85 1015.23 1014.66 1014.10 1013.56 1013.01 1012.45 1011.88 1011.31 1010.74 1010.19 1009.65 1009.12 1008.61 1008.11 1007.62 1007.14 1006.68 1006.26 1005.88 1005.57 1005.34 1005.19 1005.12 1005.14 1005.21
1020.18 1020.49 1020.79 1021.07 1021.34 1021.55 1021.69 1021.73 1021.63 1021.39 1021.01 1020.49 1019.87 1019.17 1018.45 1017.72 1017.03 1016.38 1015.77 1015.21 1014.67 1014.15 1013.63 1013.11 1012.57 1012.02 1011.47 1010.92 1010.38 1009.84 1009.31 1008.78 1008.26 1007.73 1007.22 1006.71 1006.24 1005.80 1005.43 1005.13 1004.91 1004.77 1004.71 1004.71
1021.09 1021.40 1021.66 1021.85 1021.97 1022.01 1021.95 1021.79 1021.51 1021.11 1020.61 1020.02 1019.37 1018.68 1017.99 1017.32 1016.68 1016.08 1015.51 1014.98 1014.48 1013.97 1013.47 1012.95 1012.43 1011.89 1011.36 1010.82 1010.28 1009.75 1009.21 1008.68 1008.14 1007.60 1007.07 1006.54 1006.04 1005.58 1005.18 1004.84 1004.58 1004.40 1004.28 1004.22
1021.94 1022.19 1022.36 1022.44 1022.42 1022.31 1022.08 1021.76 1021.34 1020.83 1020.24 1019.60 1018.93 1018.24 1017.57 1016.93 1016.32 1015.74 1015.19 1014.67 1014.15 1013.64 1013.13 1012.60 1012.07 1011.53 1010.99 1010.44 1009.90 1009.36 1008.82 1008.28 1007.73 1007.19 1006.65 1006.12 1005.62 1005.16 1004.76 1004.42 1004.15 1003.96 1003.82 1003.73
1022.66 1022.81 1022.86 1022.81 1022.66 1022.41 1022.07 1021.63 1021.12 1020.55 1019.92 1019.26 1018.58 1017.91 1017.25 1016.62 1016.02 1015.43 1014.88 1014.33 1013.79 1013.24 1012.69 1012.14 1011.57 1011.01 1010.44 1009.88 1009.32 1008.76 1008.20 1007.65 1007.09 1006.54 1006.00 1005.48 1005.00 1004.56 1004.18 1003.86 1003.61 1003.43 1003.30 1003.21
1023.21 1023.22 1023.13 1022.95 1022.68 1022.33 1021.90 1021.41 1020.85 1020.26 1019.63 1018.98 1018.32 1017.67 1017.02 1016.40 1015.78 1015.18 1014.59 1014.00 1013.41 1012.82 1012.22 1011.62 1011.01 1010.41 1009.81 1009.21 1008.62 1008.04 1007.46 1006.88 1006.31 1005.75 1005.22 1004.71 1004.24 1003.82 1003.47 1003.19 1002.97 1002.82 1002.71 1002.63
1023.56 1023.41 1023.19 1022.88 1022.51 1022.08 1021.61 1021.09 1020.54 1019.96 1019.36 1018.74 1018.11 1017.48 1016.85 1016.21 1015.58 1014.94 1014.31 1013.67 1013.02 1012.38 1011.72 1011.07 1010.43 1009.78 1009.15 1008.52 1007.90 1007.29 1006.69 1006.09 1005.50 1004.94 1004.40 1003.89 1003.44 1003.04 1002.71 1002.46 1002.27 1002.14 1002.05 1001.98
1023.72 1023.43 1023.08 1022.67 1022.22 1021.74 1021.25 1020.73 1020.20 1019.65 1019.08 1018.50 1017.90 1017.29 1016.65 1016.01 1015.34 1014.67 1013.99 1013.29 1012.60 1011.90 1011.21 1010.52 1009.84 1009.17 1008.51 1007.86 1007.22 1006.59 1005.97 1005.35 1004.75 1004.17 1003.62 1003.12 1002.67 1002.27 1001.95 1001.70 1001.52 1001.40 1001.32 1001.25
1023.72 1023.32 1022.87 1022.39 1021.88 1021.38 1020.87 1020.37 1019.86 1019.34 1018.80 1018.25 1017.66 1017.04 1016.39 1015.72 1015.02 1014.31 1013.57 1012.84 1012.10 1011.37 1010.65 1009.94 1009.24 1008.57 1007.90 1007.25 1006.60 1005.96 1005.33 1004.71 1004.10 1003.51 1002.95 1002.43 1001.97 1001.57 1001.23 1000.97 1000.77 1000.63 1000.53 1000.44
1023.62 1023.15 1022.64 1022.11 1021.58 1021.06 1020.55 1020.06 1019.56 1019.05 1018.52 1017.95 1017.35 1016.72 1016.04 1015.32 1014.58 1013.82 1013.05 1012.28 1011.52 1010.77 1010.04 1009.33 1008.64 1007.96 1007.31 1006.66 1006.02 1005.39 1004.76 1004.14 1003.53 1002.93 1002.36 1001.83 1001.35 1000.93 1000.57 1000.27 1000.03 999.85 999.71 999.58
1023.45 1022.95 1022.42 1021.88 1021.34 1020.82 1020.31 1019.81 1019.30 1018.78 1018.22 1017.63 1016.99 1016.31 1015.59 1014.83 1014.04 1013.24 1012.44 1011.65 1010.87 1010.12 1009.39 1008.69 1008.01 1007.35 1006.71 1006.08 1005.45 1004.83 1004.21 1003.60 1002.99 1002.40 1001.83 1001.29 1000.79 1000.34 999.94 999.60 999.32 999.08 998.88 998.69
1023.26 1022.77 1022.25 1021.72 1021.19 1020.67 1020.16 1019.64 1019.10 1018.54 1017.94 1017.30 1016.60 1015.86 1015.08 1014.27 1013.45 1012.62 1011.79 1010.99 1010.21 1009.45 1008.73 1008.04 1007.37 1006.72 1006.09 1005.47 1004.85 1004.24 1003.63 1003.03 1002.43 1001.85 1001.28 1000.74 1000.23 999.77 999.34 998.97 998.64 998.35 998.08 997.84
1023.04 1022.59 1022.11 1021.60 1021.09 1020.58 1020.05 1019.51 1018.94 1018.32 1017.67 1016.96 1016.21 1015.41 1014.58 1013.73 1012.88 1012.03 1011.19 1010.38 1009.60 1008.85 1008.13 1007.44 1006.77 1006.11 1005.47 1004.84 1004.22 1003.61 1003.00 1002.40 1001.81 1001.24 1000.69 1000.16 999.66 999.19 998.76 998.37 998.01 997.68 997.38 997.10
1022.81 1022.40 1021.95 1021.48 1021.00 1020.49 1019.96 1019.39 1018.78 1018.13 1017.42 1016.66 1015.86 1015.02 1014.16 1013.29 1012.42 1011.57 1010.73 1009.92 1009.15 1008.39 1007.66 1006.95 1006.25 1005.57 1004.90 1004.24 1003.59 1002.96 1002.34 1001.73 1001.15 1000.60 1000.06 999.56 999.08 998.63 998.21 997.83 997.47 997.13 996.82 996.53
1022.53 1022.16 1021.76 1021.33 1020.87 1020.38 1019.85 1019.27 1018.64 1017.95 1017.21 1016.42 1015.59 1014.74 1013.87 1013.01 1012.15 1011.30 1010.48 1009.68 1008.90 1008.14 1007.38 1006.64 1005.90 1005.16 1004.44 1003.73 1003.03 1002.36 1001.71 1001.10 1000.52 999.98 999.47 998.99 998.55 998.14 997.76 997.40 997.07 996.76 996.47 996.21
1022.21 1021.88 1021.52 1021.12 1020.70 1020.22 1019.70 1019.12 1018.49 1017.79 1017.05 1016.26 1015.44 1014.60 1013.76 1012.92 1012.09 1011.28 1010.48 1009.69 1008.91 1008.13 1007.35 1006.56 1005.76 1004.97 1004.17 1003.39 1002.64 1001.92 1001.24 1000.61 1000.02 999.49 999.01 998.57 998.17 997.81 997.47 997.17 996.88 996.63 996.39 996.18
1021.85 1021.55 1021.23 1020.87 1020.48 1020.03 1019.53 1018.97 1018.35 1017.68 1016.96 1016.20 1015.41 1014.62 1013.82 1013.04 1012.26 1011.49 1010.72 1009.96 1009.18 1008.39 1007.57 1006.74 1005.89 1005.03 1004.17 1003.32 1002.51 1001.74 1001.03 1000.38 999.79 999.27 998.81 998.40 998.04 997.73 997.45 997.20 996.98 996.79 996.63 996.49
1021.48 1021.20 1020.91 1020.60 1020.24 1019.83 1019.36 1018.84 1018.26 1017.62 1016.95 1016.24 1015.51 1014.78 1014.05 1013.33 1012.61 1011.90 1011.18 1010.44 1009.67 1008.87 1008.04 1007.17 1006.28 1005.37 1004.47 1003.58 1002.73 1001.93 1001.19 1000.53 999.94 999.43 998.98 998.60 998.28 998.01 997.78 997.58 997.42 997.30 997.21 997.15
1021.12 1020.88 1020.62 1020.34 1020.02 1019.65 1019.22 1018.74 1018.21 1017.63 1017.01 1016.37 1015.71 1015.06 1014.40 1013.75 1013.10 1012.44 1011.76 1011.06 1010.31 1009.53 1008.70 1007.82 1006.92 1006.00 1005.08 1004.18 1003.32 1002.52 1001.78 1001.12 1000.54 1000.04 999.62 999.26 998.96 998.71 998.51 998.35 998.24 998.16 998.13 998.15
1020.80 1020.59 1020.37 1020.12 1019.83 1019.50 1019.12 1018.68 1018.20 1017.68 1017.12 1016.55 1015.97 1015.38 1014.80 1014.22 1013.63 1013.03 1012.40 1011.74 1011.03 1010.27 1009.47 1008.62 1007.74 1006.84 1005.95 1005.08 1004.25 1003.48 1002.78 1002.15 1001.59 1001.11 1000.70 1000.36 1000.07 999.83 999.64 999.50 999.41 999.37 999.37 999.43
1020.53 1020.35 1020.15 1019.93 1019.67 1019.37 1019.03 1018.63 1018.20 1017.73 1017.23 1016.72 1016.21 1015.69 1015.18 1014.66 1014.13 1013.58 1013.01 1012.40 1011.74 1011.03 1010.28 1009.49 1008.67 1007.84 1007.01 1006.21 1005.45 1004.74 1004.10 1003.52 1003.01 1002.56 1002.17 1001.84 1001.55 1001.32 1001.12 1000.98 1000.88 1000.84 1000.85 1000.92
1020.30 1020.13 1019.95 1019.74 1019.51 1019.23 1018.91 1018.55 1018.15 1017.73 1017.29 1016.83 1016.38 1015.92 1015.47 1015.01 1014.54 1014.05 1013.53 1012.98 1012.38 1011.74 1011.06 1010.35 1009.62 1008.89 1008.16 1007.46 1006.80 1006.18 1005.62 1005.11 1004.65 1004.25 1003.89 1003.57 1003.28 1003.04 1002.83 1002.67 1002.56 1002.50 1002.49 1002.55
1020.06 1019.90 1019.72 1019.51 1019.28 1019.01 1018.70 1018.37 1018.00 1017.62 1017.23 1016.83 1016.43 1016.04 1015.64 1015.24 1014.83 1014.40 1013.95 1013.46 1012.93 1012.37 1011.77 1011.16 1010.53 1009.90 1009.29 1008.70 1008.15 1007.64 1007.17 1006.75 1006.36 1006.00 1005.68 1005.38 1005.10 1004.85 1004.63 1004.45 1004.31 1004.21 1004.18 1004.20
1019.79 1019.61 1019.41 1019.19 1018.95 1018.67 1018.37 1018.05 1017.72 1017.38 1017.03 1016.69 1016.35 1016.02 1015.69 1015.35 1015.00 1014.63 1014.24 1013.82 1013.36 1012.88 1012.37 1011.85 1011.32 1010.81 1010.30 1009.83 1009.39 1008.98 1008.60 1008.26 1007.94 1007.64 1007.36 1007.09 1006.83 1006.58 1006.36 1006.16 1005.99 1005.87 1005.79 1005.76
1019.44 1019.23 1019.00 1018.75 1018.48 1018.20 1017.90 1017.60 1017.29 1016.99 1016.70 1016.42 1016.15 1015.88 1015.62 1015.35 1015.07 1014.77 1014.44 1014.08 1013.69 1013.28 1012.85 1012.41 1011.97 1011.54 1011.13 1010.75 1010.40 1010.08 1009.78 1009.51 1009.26 1009.01 1008.77 1008.54 1008.30 1008.08 1007.86 1007.66 1007.48 1007.33 1007.22 1007.15
1019.00 1018.74 1018.47 1018.18 1017.89 1017.60 1017.30 1017.02 1016.75 1016.50 1016.26 1016.05 1015.85 1015.66 1015.47 1015.28 1015.07 1014.83 1014.56 1014.26 1013.93 1013.58 1013.21 1012.82 1012.44 1012.07 1011.72 1011.40 1011.11 1010.85 1010.61 1010.39 1010.19 1009.99 1009.80 1009.60 1009.41 1009.21 1009.02 1008.83 1008.65 1008.50 1008.37 1008.27
1018.46 1018.16 1017.85 1017.53 1017.22 1016.92 1016.64 1016.38 1016.15 1015.96 1015.79 1015.65 1015.53 1015.42 1015.30 1015.18 1015.03 1014.85 1014.64 1014.38 1014.09 1013.77 1013.43 1013.08 1012.72 1012.38 1012.06 1011.76 1011.50 1011.26 1011.05 1010.87 1010.70 1010.54 1010.39 1010.23 1010.08 1009.92 1009.76 1009.60 1009.45 1009.31 1009.19 1009.07
Thickness
5760 5767 5769 5769 5767 5764 5760 5754 5746 5752 5755 5766 5773 5776 5778 5780 5780 5779 5778 5776 5774 5772 5771 5770 5769 5768 5768 5766 5765 5762 5759 5756 5754 5753 5752 5750 5748 5746 5745 5743 5742 5740 5738 5737
5754 5762 5763 5760 5764 5763 5761 5759 5755 5756 5757 5771 5774 5775 5774 5774 5774 5772 5772 5771 5770 5769 5767 5765 5765 5763 5762 5761 5760 5757 5754 5752 5750 5748 5746 5745 5743 5741 5740 5738 5737 5735 5733 5732
5733 5748 5752 5741 5755 5757 5757 5758 5756 5750 5759 5766 5766 5767 5767 5767 5768 5767 5767 5766 5764 5763 5762 5761 5760 5759 5756 5755 5754 5751 5749 5747 5745 5743 5741 5740 5738 5736 5734 5733 5732 5730 5729 5727
5720 5732 5720 5742 5763 5761 5755 5755 5757 5758 5760 5761 5762 5762 5762 5763 5761 5760 5761 5760 5760 5758 5757 5757 5755 5753 5751 5749 5747 5744 5742 5740 5739 5737 5736 5734 5733 5731 5730 5728 5726 5725 5724 5723
5706 5709 5718 5740 5754 5754 5747 5746 5755 5753 5754 5755 5757 5757 5753 5757 5757 5755 5756 5755 5754 5753 5752 5750 5749 5747 5744 5741 5738 5736 5735 5733 5732 5731 5729 5728 5727 5726 5725 5723 5721 5720 5719 5719
5702 5705 5704 5730 5753 5758 5749 5736 5752 5751 5748 5747 5748 5736 5740 5750 5750 5750 5749 5749 5747 5746 5744 5742 5741 5738 5735 5732 5730 5729 5728 5727 5725 5724 5723 5722 5721 5720 5718 5717 5716 5715 5714 5713
5698 5699 5708 5735 5747 5749 5724 5730 5748 5747 5744 5741 5738 5737 5740 5743 5742 5742 5741 5741 5739 5738 5735 5733 5732 5729 5726 5723 5721 5722 5721 5720 5719 5717 5716 5715 5714 5713 5711 5709 5708 5707 5707 5707
5689 5692 5702 5735 5737 5730 5730 5741 5742 5740 5739 5736 5734 5734 5734 5733 5732 5733 5732 5732 5730 5728 5726 5724 5723 5720 5717 5715 5715 5714 5713 5712 5712 5710 5709 5708 5706 5704 5703 5701 5700 5699 5699 5699
5698 5703 5718 5725 5729 5734 5734 5733 5734 5733 5733 5731 5727 5725 5724 5722 5722 5722 5722 5722 5721 5718 5716 5715 5714 5712 5709 5708 5707 5705 5703 5702 5702 5702 5700 5699 5697 5695 5694 5693 5692 5691 5691 5691
5696 5706 5713 5719 5723 5727 5729 5729 5730 5729 5727 5725 5720 5717 5714 5712 5711 5711 5712 5712 5711 5709 5707 5705 5706 5705 5702 5701 5699 5697 5695 5694 5693 5692 5691 5690 5688 5687 5685 5684 5683 5683 5683 5684
5690 5701 5707 5714 5716 5720 5722 5723 5722 5721 5719 5716 5713 5708 5706 5703 5702 5702 5702 5702 5701 5700 5698 5697 5696 5696 5695 5694 5691 5689 5687 5686 5685 5683 5682 5680 5679 5678 5677 5677 5676 5676 5676 5676
5687 5697 5697 5702 5710 5713 5712 5711 5711 5710 5708 5706 5705 5701 5698 5695 5694 5694 5694 5694 5692 5690 5689 5688 5688 5687 5686 5685 5683 5681 5679 5678 5677 5675 5674 5673 5671 5670 5670 5669 5670 5669 5669 5668
5694 5697 5696 5700 5703 5705 5703 5704 5703 5702 5699 5696 5695 5693 5690 5687 5686 5685 5685 5685 5684 5682 5681 5680 5679 5678 5678 5677 5676 5673 5671 5670 5669 5668 5666 5665 5664 5662 5661 5662 5662 5662 5661 5660
5691 5691 5689 5691 5692 5695 5695 5695 5694 5692 5690 5689 5687 5685 5683 5680 5678 5677 5676 5676 5676 5674 5672 5671 5670 5669 5669 5668 5667 5666 5665 5664 5662 5660 5658 5657 5656 5655 5653 5653 5653 5654 5654 5652
5684 5685 5684 5685 5685 5685 5686 5685 5682 5680 5679 5678 5677 5675 5674 5671 5670 5669 5669 5668 5667 5666 5665 5663 5662 5662 5662 5660 5659 5658 5657 5656 5655 5654 5652 5650 5648 5647 5646 5645 5644 5645 5645 5645
5675 5677 5677 5675 5675 5675 5676 5675 5672 5670 5670 5669 5668 5666 5665 5664 5663 5662 5661 5660 5658 5657 5656 5655 5654 5655 5654 5652 5651 5651 5650 5649 5648 5647 5645 5644 5642 5640 5638 5637 5636 5636 5636 5636
5666 5665 5666 5665 5666 5666 5666 5666 5664 5663 5662 5660 5659 5658 5657 5655 5654 5654 5653 5653 5651 5650 5649 5647 5647 5647 5646 5645 5643 5643 5642 5641 5640 5639 5638 5636 5635 5633 5631 5629 5628 5627 5627 5626
5663 5663 5662 5662 5659 5658 5657 5657 5656 5655 5654 5653 5652 5651 5649 5647 5646 5646 5645 5644 5643 5642 5642 5641 5640 5640 5638 5637 5636 5635 5634 5633 5632 5631 5630 5629 5627 5625 5623 5621 5620 5619 5618 5617
5655 5655 5654 5653 5653 5651 5649 5649 5648 5647 5646 5645 5644 5642 5641 5640 5639 5638 5637 5636 5635 5634 5635 5635 5634 5633 5632 5630 5629 5628 5627 5626 5625 5623 5622 5620 5618 5617 5615 5613 5612 5610 5609 5608
5646 5646 5646 5645 5645 5643 5642 5641 5640 5639 5639 5638 5636 5635 5634 5633 5632 5631 5630 5629 5629 5628 5628 5627 5626 5625 5625 5623 5622 5621 5620 5619 5617 5616 5614 5612 5610 5608 5607 5605 5603 5602 5601 5599
5636 5637 5636 5635 5635 5636 5636 5635 5633 5632 5632 5631 5630 5629 5628 5627 5626 5624 5623 5622 5623 5622 5621 5620 5619 5618 5618 5617 5616 5615 5613 5612 5610 5608 5606 5604 5602 5601 5599 5597 5595 5594 5593 5591
5627 5627 5628 5627 5627 5627 5627 5627 5627 5626 5625 5625 5624 5623 5621 5620 5619 5618 5617 5616 5617 5615 5614 5613 5612 5612 5611 5611 5610 5608 5607 5605 5603 5602 5600 5598 5596 5595 5593 5590 5588 5587 5585 5583
5619 5620 5620 5620 5620 5619 5620 5620 5620 5620 5619 5619 5618 5617 5616 5614 5613 5612 5611 5611 5610 5608 5607 5607 5606 5606 5605 5604 5603 5602 5600 5599 5597 5595 5593 5592 5590 5588 5586 5584 5582 5580 5578 5576
5613 5613 5613 5613 5613 5613 5613 5614 5614 5615 5614 5613 5613 5612 5610 5609 5608 5608 5607 5605 5604 5602 5602 5600 5600 5599 5598 5598 5596 5595 5594 5592 5590 5589 5587 5585 5583 5581 5579 5577 5575 5573 5571 5569
5607 5607 5607 5607 5607 5607 5608 5608 5608 5609 5608 5608 5608 5607 5606 5605 5604 5603 5602 5601 5599 5597 5596 5595 5594 5593 5592 5591 5590 5588 5587 5586 5584 5582 5580 5578 5576 5574 5572 5570 5568 5566 5564 5562
5601 5601 5602 5602 5603 5602 5603 5603 5603 5603 5602 5602 5602 5602 5601 5600 5599 5598 5597 5595 5593 5592 5591 5590 5589 5587 5586 5585 5584 5582 5580 5579 5577 5575 5573 5571 5568 5566 5564 5562 5560 5558 5556 5554
5597 5597 5597 5598 5599 5599 5599 5599 5599 5599 5598 5597 5597 5597 5596 5596 5595 5593 5592 5590 5588 5586 5585 5584 5583 5581 5580 5578 5577 5575 5574 5572 5569 5567 5565 5562 5559 5557 5555 5553 5551 5549 5547 5545